Regional Weather Roundup
Issued by NWS New Orleans/Baton Rouge, LA

Home | Current Version | Previous Version | Graphics & Text | Print | Product List | Glossary On
Versions: 1 2 3 4 5 6 7 8 9 10 11 12 13 14 15 16 17 18 19 20 21 22 23 24 25 26 27 28 29 30 31 32 33 34 35 36 37 38 39 40 41 42 43 44 45 46 47 48 49 50
480
ASUS44 KLIX 201001
RWRLIX
NEW ORLEANS REGIONAL WEATHER ROUNDUP
NATIONAL WEATHER SERVICE NEW ORLEANS LA
500 AM CDT MON OCT 20 2014

NOTE: "FAIR" INDICATES FEW OR NO CLOUDS BELOW 12,000 FEET WITH NO
      SIGNIFICANT WEATHER AND/OR OBSTRUCTIONS TO VISIBILITY.
      SKY/WX - SKY CONDITION AND SIGNIFICANT WEATHER.
      TMP - AIR TEMPERATURE.     DP    - DEWPOINT TEMPERATURE.
      RH  - RELATIVE HUMIDITY.   PRES  - PRESSURE.
      HI  - HEAT INDEX.          WCI   - WIND CHILL INDEX.

*  THESE STATIONS ARE NOT NWS OR FAA STATIONS AND ARE NOT UNDER
   NWS QUALITY CONTROL.

LAZ038-040-048-061>063-065>067-069-201100-
SOUTHEAST LOUISIANA

CITY           SKY/WX    TMP DP  RH WIND       PRES   REMARKS
N.O. AUDUBON     N/A     61  59  94 MISG        N/A
N.O. INTL ARPT PTCLDY    60  56  86 CALM      30.02F
N.O. LAKEFRONT CLEAR     68  59  73 E6        30.03F
N.O. DOWNTOWN*   N/A     66  54  63 NE5       30.03F
SLIDELL        CLEAR     49  46  90 N3        30.04S
BATON ROUGE    CLEAR     53  50  89 NE5       30.04F
BOOTHVILLE     CLEAR     70  62  76 E3        30.02S
BELLE CHASSE   CLEAR     55  52  89 CALM      30.02F
BOGALUSA*        N/A     46  43  90 CALM      30.07S
NEW ROADS*       N/A     53  51  94 CALM      30.04F
GONZALES*        N/A     55  55 100 CALM      30.03S FOG
HAMMOND*       NOT AVBL
HOUMA*         CLEAR     58  58  98 CALM      30.02S
PORT FOURCHON* SUNNY     70  61  73 E3        30.04S

$$

MSZ070-080>082-201100-
SOUTHERN MISSISSIPPI

CITY           SKY/WX    TMP DP  RH WIND       PRES   REMARKS
MCCOMB         CLEAR     49  45  86 NW3       30.05F
GULFPORT       CLEAR     53  49  86 CALM      30.03F
BILOXI         CLEAR     54  49  86 N2        30.03F
PASCAGOULA     CLEAR     45  44  97 CALM      30.04S

$$

COASTAL OBSERVATIONS
LAKE AND NEARSHORE STATIONS

STATION/POSITION TIME  TEMP    WIND        PRES    WAVE
                       AIR SEA DIR/SP/G            HT/PER
                 (UTC) (F)     (DEG/KT/KT) (MB)    (FT/S)
PASCAGOULA       0900   58      30/  5/  7 1016.5
WAVELAND YACHT   0900   62      40/  5/  6 1016.4
GRAND ISLE       0900   72 79   70/  6/ 10 1016.7
SOUTHWEST PASS   0900   74 84              1016.3
NEW CANAL        0900   64 72   80/  4/  5 1017.2
SHELL BEACH      0900   69 70   30/  8/  9 1016.6

OFFSHORE STATIONS

STATION/POSITION TIME  TEMP    WIND        PRES    WAVE
                       AIR SEA DIR/SP/G            HT/PER
                 (UTC) (F)     (DEG/KT/KT) (MB)    (FT/S)
64 S DAUPHIN ISL 0928   73 79   80/  8/ 10 1016.5    2/ 6

$$




USA.gov is the U.S. government's official web portal to all federal, state and local government web resources and services.